Regional Weather Roundup
Issued by NWS

Home | Current Version | Previous Version | Text Only | Print | Product List | Glossary On
Versions: 1 2 3 4 5 6 7 8 9 10 11 12 13 14 15 16 17 18 19 20 21 22 23 24 25 26 27 28 29 30 31 32 33 34 35 36 37 38 39 40 41 42 43 44 45 46 47 48 49 50
000
ASUS45 KABQ 201210
RWRNM
WEATHER ROUNDUP FOR NEW MEXICO
NATIONAL WEATHER SERVICE ALBUQUERQUE NM
600 AM MDT SAT SEP 20 2014

NOTE: "FAIR" MEANS FEW OR NO CLOUDS BELOW 12,000 FEET AGL WITH NO
       SIGNIFICANT WEATHER OR OBSTRUCTIONS TO VISION.

      THIS PRODUCT IS RELEASED AS TWO VERSIONS.  ONE VERSION NEAR
      THE TOP OF THE HOUR CONTAINING PRELIMINARY DATA FROM ALBUQUERQUE
      AND OTHER STATIONS.  A FINAL VERSION WITH ADDITIONAL DATA IS
      ISSUED ABOUT 10 MINUTES AFTER THE HOUR.

NMZ501-503-504-510>518-201300-
NORTHWEST PLATEAU/NORTHCENTRAL MOUNTAINS

CITY           SKY/WX    TMP DP  RH WIND       PRES   REMARKS
FARMINGTON     CLEAR     58  43  57 E6        30.11R
6HR MIN TEMP:  55; 6HR MAX TEMP:  67;

LOS ALAMOS     CLEAR     57  56  97 NW3       30.25S
SANTA FE       CLEAR     54  50  86 E3        30.19R
6HR MIN TEMP:  54; 6HR MAX TEMP:  64;

TAOS           CLEAR     48  43  81 N8        30.27R
ANGEL FIRE     FOG       42  41  93 CALM      30.36S VSB 1/4

$$
NMZ402-403-502-505>509-201300-
WESTCENTRAL MOUNTAINS/SOUTHWEST MOUNTAINS

CITY           SKY/WX    TMP DP  RH WIND       PRES   REMARKS
GALLUP         CLEAR     47  34  60 NE3       30.20R
6HR MIN TEMP:  45; 6HR MAX TEMP:  58;

GRANTS         CLEAR     48  39  71 NW5       30.23R
SILVER CITY    CLEAR     63  59  88 N8        30.13R

$$
NMZ407-409-411-412-201300-
SOUTHERN DESERTS

CITY           SKY/WX    TMP DP  RH WIND       PRES   REMARKS
LORDSBURG      FAIR      63  63 100 MISG      30.05R
DEMING         CLEAR     63  62  97 SW5       30.05R
6HR MIN TEMP:  63; 6HR MAX TEMP:  68;

LAS CRUCES     CLOUDY    67  64  91 CALM      30.05S
HOLLOMAN AFB   PTCLDY    64  64 100 CALM      30.03R
ALAMOGORDO     CLOUDY    68  64  88 NW7       30.04S
T OR C         CLEAR     63  61  93 N5        30.07S
6HR MIN TEMP:  63; 6HR MAX TEMP:  69;


$$
NMZ519>523-201300-
CENTRAL VALLEYS/CENTRAL HIGHLANDS

CITY           SKY/WX    TMP DP  RH WIND       PRES   REMARKS
ALBUQUERQUE    CLEAR     65  57  75 N6        30.13R
6HR MIN TEMP:  65; 6HR MAX TEMP:  70;

DOUBLE EAGLE   CLEAR     54  52  94 CALM      30.16R
MORIARTY ARPT  CLOUDY    58  56  94 CALM      30.21R FOG
6HR MIN TEMP:  52; 6HR MAX TEMP:  58;

CLINES CORNERS FOG       52  51  97 S5        30.22R VSB 1/4
6HR MIN TEMP:  51; 6HR MAX TEMP:  58;

BELEN          FAIR      60  58  92 E5        30.12R
6HR MIN TEMP:  60; 6HR MAX TEMP:  64;

SOCORRO        FAIR      61  58  91 CALM      30.10R
6HR MIN TEMP:  61; 6HR MAX TEMP:  66;


$$
NMZ524>526-539-540-201300-
SOUTHCENTRAL MOUNTAINS

CITY           SKY/WX    TMP DP  RH WIND       PRES   REMARKS
RUIDOSO        PTCLDY    55  55 100 W7        30.23S

$$
NMZ527>531-201300-
NORTHEAST HIGHLANDS/NORTHEAST PLAINS

CITY           SKY/WX    TMP DP  RH WIND       PRES   REMARKS
LAS VEGAS      CLOUDY    56  52  86 N6        30.22R
6HR MIN TEMP:  55; 6HR MAX TEMP:  60;

RATON          PTCLDY    56  54  93 NW5       30.18R
6HR MIN TEMP:  56; 6HR MAX TEMP:  63;

CLAYTON        CLEAR     61  58  90 SW10      30.08S
6HR MIN TEMP:  61; 6HR MAX TEMP:  66;


$$
NMZ532>537-201300-
EASTCENTRAL PLAINS

CITY           SKY/WX    TMP DP  RH WIND       PRES   REMARKS
TUCUMCARI      CLOUDY    63  59  87 CALM      30.06S
6HR MIN TEMP:  62; 6HR MAX TEMP:  67;

CANNON AFB     PTCLDY    63 N/A N/A N5        30.08R
6HR MIN TEMP:  63; 6HR MAX TEMP:  65;

CLOVIS AIRPORT   N/A     64  63  94 NW6       30.10R

$$
NMZ028-029-538-201300-
SOUTHEAST PLAINS

CITY           SKY/WX    TMP DP  RH WIND       PRES   REMARKS
ROSWELL        CLOUDY    68  66  93 N8        30.02S
6HR MIN TEMP:  68; 6HR MAX TEMP:  69; 6HR PCP: TRACE;

CARLSBAD       CLOUDY    70  50  49 CALM      30.00R
6HR MIN TEMP:  69; 6HR MAX TEMP:  71;

HOBBS          MOCLDY    68  68 100 CALM      30.03


$$


USA.gov is the U.S. government's official web portal to all federal, state and local government web resources and services.